User: anonymous   Login
Location: Unspecified
(0.0000°N, 0.0000°E)
Time: 20:52:06
(UTC+00:00)
Language:

ATEX - Orbit

View from above orbital plane
View from above orbital plane
View from above satellite
View from above satellite

Ground track
Ground track

The orbit data is extracted from the following two-line orbital elements,

1 25615U 98055C   18132.87514348 0.00000080  00000-0  22951-4 0    05
2 25615  84.9851 319.1585 0009000 120.3835 239.6163 14.45009777    03
Epoch (UTC): 12 May 2018 21:00:12
Eccentricity: 0.0009000
inclination: 84.9851°
perigee height: 735 km
apogee height: 748 km
right ascension of ascending node: 319.1585°
argument of perigee: 120.3835°
revolutions per day: 14.45009777
mean anomaly at epoch: 239.6163°
orbit number at epoch: 0

The dashed part of the orbit path shows where the satellite is in the earth's shadow,  

DLR